Time,TemperatureF,DewpointF,PressureIn,WindDirection,WindDirectionDegrees,WindSpeedMPH,WindSpeedGustMPH,Humidity,HourlyPrecipIn,Conditions,Clouds,dailyrainin,SoftwareType,DateUTC
2013-01-23 00:02:00,39.0,-99.9,-100.00,NE,45,2.0,3.0,-999,-99.99,,,-99.99,,2013-01-23 08:02:00,
2013-01-23 01:03:00,39.0,-99.9,-100.00,SSE,158,7.0,8.0,-999,-99.99,,,-99.99,,2013-01-23 09:03:00,
2013-01-23 02:03:00,39.0,-99.9,-100.00,SE,135,5.0,13.0,-999,-99.99,,,-99.99,,2013-01-23 10:03:00,
2013-01-23 03:03:00,41.0,-99.9,-100.00,NE,45,8.0,14.0,-999,-99.99,,,-99.99,,2013-01-23 11:03:00,
2013-01-23 04:04:00,41.0,-99.9,-100.00,North,0,0.0,12.0,-999,-99.99,,,-99.99,,2013-01-23 12:04:00,
2013-01-23 05:04:00,41.0,-99.9,-100.00,ENE,68,3.0,9.0,-999,-99.99,,,-99.99,,2013-01-23 13:04:00,
2013-01-23 06:03:00,41.0,-99.9,-100.00,North,360,1.0,9.0,-999,-99.99,,,-99.99,,2013-01-23 14:03:00,
2013-01-23 07:03:00,41.0,-99.9,-100.00,SSE,158,3.0,6.0,-999,-99.99,,,-99.99,,2013-01-23 15:03:00,
2013-01-23 08:03:00,41.0,-99.9,-100.00,NNW,338,3.0,7.0,-999,-99.99,,,-99.99,,2013-01-23 16:03:00,
2013-01-23 09:04:00,41.0,-99.9,-100.00,ESE,112,3.0,6.0,-999,-99.99,,,-99.99,,2013-01-23 17:04:00,
2013-01-23 10:04:00,42.0,-99.9,-100.00,North,360,2.0,6.0,-999,-99.99,,,-99.99,,2013-01-23 18:04:00,
2013-01-23 11:03:00,42.0,-99.9,-100.00,North,0,0.0,5.0,-999,-99.99,,,-99.99,,2013-01-23 19:03:00,
2013-01-23 12:03:00,42.0,-99.9,-100.00,North,0,0.0,5.0,-999,-99.99,,,-99.99,,2013-01-23 20:03:00,
2013-01-23 13:03:00,41.0,-99.9,-100.00,NE,45,3.0,5.0,-999,-99.99,,,-99.99,,2013-01-23 21:03:00,
2013-01-23 14:03:00,41.0,-99.9,-100.00,North,0,0.0,8.0,-999,-99.99,,,-99.99,,2013-01-23 22:03:00,
2013-01-23 15:03:00,41.0,-99.9,-100.00,West,270,2.0,9.0,-999,-99.99,,,-99.99,,2013-01-23 23:03:00,
2013-01-23 16:03:00,40.0,-99.9,-100.00,North,0,0.0,3.0,-999,-99.99,,,-99.99,,2013-01-24 00:03:00,
2013-01-23 17:03:00,42.0,-99.9,-100.00,SE,135,8.0,9.0,-999,-99.99,,,-99.99,,2013-01-24 01:03:00,
2013-01-23 18:03:00,41.0,-99.9,-100.00,SE,135,12.0,14.0,-999,-99.99,,,-99.99,,2013-01-24 02:03:00,
2013-01-23 19:03:00,42.0,-99.9,-100.00,South,180,10.0,15.0,-999,-99.99,,,-99.99,,2013-01-24 03:03:00,
2013-01-23 20:03:00,43.0,-99.9,-100.00,SSE,158,12.0,12.0,-999,-99.99,,,-99.99,,2013-01-24 04:03:00,
2013-01-23 21:03:00,43.0,-99.9,-100.00,SE,135,14.0,16.0,-999,-99.99,,,-99.99,,2013-01-24 05:03:00,
2013-01-23 22:03:00,43.0,-99.9,-100.00,SSE,158,12.0,20.0,-999,-99.99,,,-99.99,,2013-01-24 06:03:00,
2013-01-23 23:03:00,43.0,-99.9,-100.00,SSE,158,12.0,16.0,-999,-99.99,,,-99.99,,2013-01-24 07:03:00,